User: anonymous   Login
Location: *
(53.9002°N, 27.5624°E)
Time: 13:48:30
(UTC+00:00)
Language:

CSL-04 Debris - Orbit

View from above orbital plane
View from above orbital plane
View from above satellite
View from above satellite

Ground track
Ground track

The orbit data is extracted from the following two-line orbital elements,

1 25733U 99025D   20020.66344808 +.00000083 +00000-0 +64657-4 0  9991
2 25733 098.9640 048.0023 0015105 029.0153 331.1858 14.16328333068633
Epoch (UTC): 20 January 2020 15:55:21
Eccentricity: 0.0015105
inclination: 98.9640°
perigee height: 827 km
apogee height: 848 km
right ascension of ascending node: 48.0023°
argument of perigee: 29.0153°
revolutions per day: 14.16328333
mean anomaly at epoch: 331.1858°
orbit number at epoch: 6863

The dashed part of the orbit path shows where the satellite is in the earth's shadow,  

DLR